Location: Bogotá
(4.6533°N, 74.0837°W)
Time: 23:28:52
(UTC+00:00)

ISS - Pass Details

Date: 07 April 2024
Orbit: 413 x 419 km, 51.6° (Epoch: 13 April)

Event Time Altitude Azimuth Distance (km) Brightness Sun altitude
Rises 00:24:59 0° 315° (NW) 2,345 0.9 -20.8°
Reaches altitude 10° 00:27:08 10° 308° (NW) 1,486 -0.1 -21.3°
Maximum altitude 00:30:19 43° 235° (SW) 596 -2.8 -22.1°
Enters shadow 00:30:36 42° 219° (SW) 608 -2.8 -22.2°
